Regional Weather Roundup
Issued by NWS Newport/Morehead, NC

Current Version | Previous Version | Graphics & Text | Print | Product List | Glossary On
Versions: 1 2 3 4 5 6 7 8 9 10 11 12 13 14 15 16 17 18 19 20 21 22 23 24 25 26 27 28 29 30 31 32 33 34 35 36 37 38 39 40 41 42 43 44 45 46 47 48 49 50
000 ASUS42 KMHX 301325 RWRMHX WEATHER ROUNDUP FOR EASTERN NORTH CAROLINA NATIONAL WEATHER SERVICE NEWPORT/MOREHEAD CITY NC 900 AM EDT TUE JUN 30 2015 NOTE: "FAIR" INDICATES FEW OR NO CLOUDS BELOW 12,000 FEET WITH NO SIGNIFICANT WEATHER AND/OR OBSTRUCTIONS TO VISIBILITY NCZ015>017-031-032-045>047-102-103-301400- NORTH COAST CITY SKY/WX TMP DP RH WIND PRES REMARKS EDENTON SUNNY 78 69 74 SW5 29.98S ELIZABETH CITY MOSUNNY 80 71 74 S8 29.98R KITTY HAWK SUNNY 82 73 75 S3 29.98S MANTEO SUNNY 80 70 70 SW7 30.00R $$ NCZ045>047-081-094-103-104-301400- CENTRAL COAST CITY SKY/WX TMP DP RH WIND PRES REMARKS FRISCO SUNNY 80 72 76 SW7 30.01R SWANQUARTER N/A 81 N/A N/A SW6 29.97S $$ NCZ095-097-098-100-101-301400- SOUTHERN COAST CITY SKY/WX TMP DP RH WIND PRES REMARKS BEAUFORT SUNNY 81 71 71 W9 30.00R CEDAR ISLAND N/A 84 N/A N/A SW9 30.03S JACKSONVILLE MOSUNNY 78 68 71 W7 29.99R PINEY ISLAND SUNNY N/A N/A N/A SW7 30.00R WILMINGTON SUNNY 80 69 69 W9 30.00S $$ NCZ011>013-027>030-043-044-078>080-089-090>093-098-301400- COASTAL PLAIN CITY SKY/WX TMP DP RH WIND PRES REMARKS AHOSKIE SUNNY 76 68 74 S3 29.97S CLINTON SUNNY 78 69 73 SW5 30.00S ELIZABETHTOWN SUNNY 78 67 69 SW5 30.00S GOLDSBORO SUNNY 79 67 66 SW6 29.97S GREENVILLE SUNNY 79 68 69 SW5 30.00S HAVELOCK MOSUNNY 80 68 66 SW7 30.00R KENANSVILLE SUNNY 79 67 66 SW5 30.00S KINSTON SUNNY 79 68 69 SW5 30.00R NEW BERN MOSUNNY 78 68 71 W6 30.01R RICHLANDS SUNNY 81 66 61 SW7 30.01R ROCKY MOUNT SUNNY 80 66 62 S8 29.98R WASHINGTON SUNNY 78 69 72 W7 29.99S WHITEVILLE SUNNY 78 69 73 SW6 30.01R $$ AMZ130-135-150-152-154-156-158-170-250-252-270-ANZ085-086-088-633-658-670-301400- MARINE OBSERVATIONS STATION/POSITION TIME TEMP WIND PRES WAVE SWELL AIR SEA DIR/SP/G HT/PER HT/PER (UTC) (F) (DEG/KT/KT) (MB) (FT/S) (FT/S) CHESAPEAKE LIGHT 1300 77 170/ 14/ 15 1015.6 64 E VA BEACH 1250 76 75 140/ 10/ 10 1015.2 4/ 8 3/ 8 DUCK 1300 79 75 220/ 7/ 10 1014.6 2 E DUCK 1211 72 N/A 2/ 9 OREGON INLET 1300 79 77 220/ 8/ 10 1015.7 13E OREGON INLT 1300 75 N/A 3/ 8 HATTERAS CG 1300 81 80 210/ 7/ 10 1015.6 DIAMOND BUOY 1250 80 81 240/ 10/ 12 1015.9 3/ 7 3/ 7 CAPE LOOKOUT 1300 81 250/ 11/ 13 1015.8 BEAUFORT LAB 1300 81 80 240/ 5/ 10 1015.2 30 SE NEW RVR IN NOT AVBL 27 SE WRIGHTSVLE 1300 80 270/ 10/ 12 N/A 5 SE WRIGHTSVLE 1208 79 79 270/ 12/ 16 1015.6 225 S CAPE HAT 1250 77 80 210/ 19/ 23 1018.0 6/ 7 41 SE CHARLESTON 1250 81 82 250/ 14/ 16 1016.6 4/ 7 2/ 7 $$

USA.gov is the U.S. government's official web portal to all federal, state and local government web resources and services.